Regional Weather Roundup
Issued by NWS

Home | Current Version | Previous Version | Graphics & Text | Print | Product List | Glossary On
Versions: 1 2 3 4 5 6 7 8 9 10 11 12 13 14 15 16 17 18 19 20 21 22 23 24 25 26 27 28
000
ASUS45 KSLC 200810
RWRUT

UTAH REGIONAL WEATHER ROUNDUP
NATIONAL WEATHER SERVICE SALT LAKE CITY UT
100 AM MST MON NOV 20 2017

UTZ001>011-023>025-200900-

NORTHERN UTAH

CITY           SKY/WX    TMP DP  RH WIND       PRES   REMARKS
BRIGHAM CITY   CLOUDY    31  26  81 CALM      30.10R
HILL AFB       CLOUDY    32  22  67 E16       30.07S WCI  21
LOGAN          MOCLDY    27  24  89 NE5       30.08R WCI  22
OGDEN          CLOUDY    32  24  72 S6        30.07F WCI  26
SALT LAKE CITY CLOUDY    35  30  82 CALM      30.08F
TOOELE VALLEY  CLOUDY    32  28  86 CALM      30.10R
WENDOVER       CLOUDY    32  25  75 E3        30.09S
HEBER CITY       N/A     27  21  80 CALM      30.10S
WEST JORDAN    CLOUDY    31  28  90 SE5       30.08F WCI  26

$$

UTZ011>015-024>027-200900-

CENTRAL/NORTHEAST UTAH

CITY           SKY/WX    TMP DP  RH WIND       PRES   REMARKS
PROVO AIRPORT  CLOUDY    31  27  85 CALM      30.11S
MOAB/CANYONLAN CLOUDY    24   2  38 CALM      30.18F
DELTA          CLOUDY    28  21  74 E6        30.10F WCI  22
PRICE          CLOUDY    25   8  48 CALM      30.17F
RICHFIELD      CLEAR     27  25  93 CALM      30.15S
ROOSEVELT      CLOUDY    23  18  80 CALM      30.18S
VERNAL         CLOUDY    25  14  63 W5        30.15F WCI  19

$$

UTZ013>016-019>022-027-200900-

SOUTHERN UTAH

CITY           SKY/WX    TMP DP  RH WIND       PRES   REMARKS
BRYCE CANYON   PTCLDY    13   6  74 SW7       30.21F WCI   3
CEDAR CITY     MOCLDY    41   5  22 S8        30.12S
MILFORD        CLOUDY    37  11  34 S15       30.10R WCI  28
ST GEORGE      CLOUDY    41   7  24 CALM      30.14S
HANKSVILLE     MOCLDY    28   7  40 MISG      30.23S
KANAB          CLEAR     28  10  47 NE6       30.21S WCI  22
BLANDING         N/A     24   4  41 NE3       30.25F

$$

REGIONAL REPORTS     COLORADO/ARIZONA

CITY           SKY/WX    TMP DP  RH WIND       PRES   REMARKS
CRAIG, CO      CLOUDY    14   9  80 SW5       30.15R WCI   6
GRAND JUNCTION CLOUDY    24  13  62 SE6       30.20F WCI  17
RIFLE, CO      CLOUDY    21  17  84 CALM      30.22F
MONTROSE, CO   CLOUDY    20  16  84 S7        30.23F WCI  11
CORTEZ, CO     CLOUDY    13   8  81 CALM      30.22R
COLORADO CITY    N/A     30   9  40 SE7       30.19S WCI  23
PAGE, AZ       MOCLDY    37  10  32 S3        30.18S
GRAND CANYON   MOCLDY    17  -2  43 CALM      30.20F
KINGMAN, AZ    PTCLDY    34   6  31 SE5       30.10F WCI  30
FLAGSTAFF, AZ  PTCLDY    21   2  43 CALM      30.20F

$$

REGIONAL REPORTS    NEVADA/IDAHO/WYOMING

CITY           SKY/WX    TMP DP  RH WIND       PRES   REMARKS
LAS VEGAS, NV  CLOUDY    47  10  22 SW3       30.08R
ELY, NY        CLOUDY    27   2  34 S9        30.13S WCI  18
ELKO, NV       CLOUDY    33  27  78 CALM      30.08R
POCATELLO, ID  CLOUDY    29  24  82 SE3       30.00F
BURLEY, ID     MOCLDY    31  26  82 CALM      29.97F
FORT BRIDGER,    N/A     27  11  49 W7        30.08S WCI  20
EVANSTON, WY   CLOUDY    25  15  66 SW12      30.06F WCI  14
ROCK SPRINGS,  CLOUDY    20  14  77 W3        30.05F

$$




USA.gov is the U.S. government's official web portal to all federal, state and local government web resources and services.